TimeCDT,TemperatureF,Dew PointF,Humidity,Sea Level PressureIn,VisibilityMPH,Wind Direction,Wind SpeedMPH,Gust SpeedMPH,PrecipitationIn,Events,Conditions,WindDirDegrees,DateUTC
12:15 AM,71.6,69.8,94,30.27,10.0,Calm,Calm,-,N/A,,Clear,0,2013-07-17 05:15:00
12:35 AM,71.6,68.0,88,30.27,10.0,Calm,Calm,-,N/A,,Clear,0,2013-07-17 05:35:00
12:55 AM,71.6,66.2,83,30.27,10.0,Calm,Calm,-,N/A,,Clear,0,2013-07-17 05:55:00
1:15 AM,71.6,66.2,83,30.27,10.0,Calm,Calm,-,N/A,,Clear,0,2013-07-17 06:15:00
1:35 AM,71.6,66.2,83,30.27,10.0,Calm,Calm,-,N/A,,Clear,0,2013-07-17 06:35:00
1:55 AM,69.8,66.2,88,30.26,10.0,Calm,Calm,-,N/A,,Clear,0,2013-07-17 06:55:00
2:15 AM,71.6,66.2,83,30.26,10.0,Calm,Calm,-,N/A,,Clear,0,2013-07-17 07:15:00
2:35 AM,69.8,66.2,88,30.25,10.0,Calm,Calm,-,N/A,,Clear,0,2013-07-17 07:35:00
2:55 AM,69.8,66.2,88,30.25,9.0,Calm,Calm,-,N/A,,Clear,0,2013-07-17 07:55:00
3:15 AM,69.8,66.2,88,30.26,9.0,Calm,Calm,-,N/A,,Clear,0,2013-07-17 08:15:00
3:35 AM,69.8,66.2,88,30.25,9.0,Calm,Calm,-,N/A,,Clear,0,2013-07-17 08:35:00
3:55 AM,69.8,66.2,88,30.25,9.0,Calm,Calm,-,N/A,,Clear,0,2013-07-17 08:55:00
4:15 AM,69.8,66.2,88,30.26,8.0,Calm,Calm,-,N/A,,Clear,0,2013-07-17 09:15:00
4:35 AM,69.8,66.2,88,30.26,9.0,Calm,Calm,-,N/A,,Clear,0,2013-07-17 09:35:00
4:55 AM,69.8,66.2,88,30.27,10.0,Calm,Calm,-,N/A,,Clear,0,2013-07-17 09:55:00
5:15 AM,68.0,64.4,88,30.27,10.0,Calm,Calm,-,N/A,,Partly Cloudy,0,2013-07-17 10:15:00
5:35 AM,69.8,66.2,88,30.28,10.0,Calm,Calm,-,N/A,,Mostly Cloudy,0,2013-07-17 10:35:00
5:55 AM,69.8,66.2,88,30.28,10.0,Calm,Calm,-,N/A,,Mostly Cloudy,0,2013-07-17 10:55:00
6:15 AM,69.8,66.2,88,30.29,10.0,Calm,Calm,-,N/A,,Mostly Cloudy,0,2013-07-17 11:15:00
6:35 AM,69.8,66.2,88,30.29,10.0,Calm,Calm,-,N/A,,Clear,0,2013-07-17 11:35:00
6:55 AM,71.6,68.0,88,30.29,10.0,Calm,Calm,-,N/A,,Clear,0,2013-07-17 11:55:00
7:15 AM,71.6,68.0,88,30.30,10.0,Calm,Calm,-,N/A,,Clear,0,2013-07-17 12:15:00
7:35 AM,73.4,69.8,88,30.30,10.0,Calm,Calm,-,N/A,,Clear,0,2013-07-17 12:35:00
7:55 AM,73.4,69.8,88,30.30,10.0,Calm,Calm,-,N/A,,Clear,0,2013-07-17 12:55:00
8:15 AM,75.2,69.8,83,30.30,10.0,Calm,Calm,-,N/A,,Clear,0,2013-07-17 13:15:00
8:35 AM,78.8,69.8,74,30.31,9.0,Calm,Calm,-,N/A,,Clear,0,2013-07-17 13:35:00
8:55 AM,80.6,69.8,70,30.31,10.0,Calm,Calm,-,N/A,,Clear,0,2013-07-17 13:55:00
9:15 AM,82.4,69.8,66,30.30,10.0,Calm,Calm,-,N/A,,Clear,0,2013-07-17 14:15:00
9:35 AM,82.4,69.8,66,30.30,10.0,Calm,Calm,-,N/A,,Clear,0,2013-07-17 14:35:00
9:55 AM,84.2,69.8,62,30.29,10.0,Calm,Calm,-,N/A,,Clear,0,2013-07-17 14:55:00
10:15 AM,84.2,69.8,62,30.29,5.0,NW,3.5,-,N/A,,Clear,320,2013-07-17 15:15:00
10:35 AM,86.0,69.8,58,30.29,10.0,NNW,4.6,-,N/A,,Clear,330,2013-07-17 15:35:00
10:55 AM,87.8,69.8,55,30.28,10.0,Calm,Calm,-,N/A,,Clear,0,2013-07-17 15:55:00
11:15 AM,87.8,69.8,55,30.28,10.0,North,5.8,-,N/A,,Clear,360,2013-07-17 16:15:00
11:35 AM,89.6,71.6,55,30.27,8.0,NE,4.6,-,N/A,,Clear,40,2013-07-17 16:35:00
11:55 AM,89.6,69.8,52,30.27,10.0,Calm,Calm,-,N/A,,Partly Cloudy,0,2013-07-17 16:55:00
12:15 PM,89.6,69.8,52,30.26,10.0,Calm,Calm,-,N/A,,Scattered Clouds,0,2013-07-17 17:15:00
12:35 PM,89.6,71.6,55,30.26,5.0,WNW,5.8,-,N/A,,Mostly Cloudy,300,2013-07-17 17:35:00
12:55 PM,89.6,69.8,52,30.25,10.0,ENE,8.1,-,N/A,,Mostly Cloudy,60,2013-07-17 17:55:00
1:15 PM,89.6,69.8,52,30.24,10.0,NNE,3.5,-,N/A,,Mostly Cloudy,20,2013-07-17 18:15:00
1:35 PM,91.4,71.6,52,30.24,10.0,NW,4.6,-,N/A,,Partly Cloudy,310,2013-07-17 18:35:00
1:55 PM,91.4,68.0,46,30.23,10.0,Calm,Calm,-,N/A,,Partly Cloudy,0,2013-07-17 18:55:00
2:15 PM,91.4,69.8,49,30.22,10.0,Calm,Calm,-,N/A,,Clear,0,2013-07-17 19:15:00
2:35 PM,91.4,69.8,49,30.21,10.0,NE,3.5,-,N/A,,Partly Cloudy,50,2013-07-17 19:35:00
2:55 PM,93.2,69.8,46,30.20,9.0,NNE,4.6,-,N/A,,Partly Cloudy,30,2013-07-17 19:55:00
3:15 PM,91.4,71.6,52,30.18,10.0,NNW,5.8,-,N/A,,Clear,330,2013-07-17 20:15:00
3:35 PM,93.2,69.8,46,30.17,10.0,Calm,Calm,-,N/A,,Clear,0,2013-07-17 20:35:00
3:55 PM,93.2,69.8,46,30.17,10.0,Calm,Calm,-,N/A,,Clear,0,2013-07-17 20:55:00
4:15 PM,89.6,73.4,59,30.16,10.0,WNW,3.5,-,N/A,,Scattered Clouds,300,2013-07-17 21:15:00
4:35 PM,89.6,71.6,55,30.15,10.0,NNW,13.8,17.3,N/A,Thunderstorm,Thunderstorm,330,2013-07-17 21:35:00
4:55 PM,84.2,68.0,58,30.15,10.0,WNW,11.5,-,N/A,Thunderstorm,Thunderstorm,290,2013-07-17 21:55:00
5:15 PM,80.6,64.4,58,30.19,10.0,NW,6.9,-,0.01,Thunderstorm,Thunderstorm,320,2013-07-17 22:15:00
5:35 PM,73.4,64.4,73,30.17,10.0,WNW,6.9,-,0.05,Thunderstorm,Thunderstorm,290,2013-07-17 22:35:00
5:55 PM,73.4,66.2,78,30.18,10.0,SSW,9.2,-,0.12,Thunderstorm,Thunderstorm,210,2013-07-17 22:55:00
6:15 PM,73.4,68.0,83,30.20,10.0,South,4.6,-,N/A,Thunderstorm,Thunderstorm,180,2013-07-17 23:15:00
6:35 PM,75.2,68.0,78,30.19,10.0,North,5.8,-,N/A,,Mostly Cloudy,350,2013-07-17 23:35:00
6:55 PM,73.4,69.8,88,30.18,10.0,North,8.1,-,N/A,Thunderstorm,Thunderstorm,360,2013-07-17 23:55:00
7:15 PM,75.2,68.0,78,30.16,10.0,WNW,8.1,-,0.03,,Scattered Clouds,300,2013-07-18 00:15:00
7:35 PM,73.4,69.8,88,30.17,10.0,North,3.5,-,0.03,,Partly Cloudy,10,2013-07-18 00:35:00
7:55 PM,73.4,68.0,83,30.15,10.0,NNW,4.6,-,0.03,,Clear,340,2013-07-18 00:55:00
8:15 PM,73.4,69.8,88,30.17,10.0,South,5.8,-,N/A,,Clear,190,2013-07-18 01:15:00
8:35 PM,73.4,69.8,88,30.18,10.0,Calm,Calm,-,N/A,,Clear,0,2013-07-18 01:35:00
8:55 PM,73.4,69.8,88,30.18,10.0,WSW,3.5,-,N/A,,Clear,250,2013-07-18 01:55:00
9:15 PM,73.4,69.8,88,30.18,10.0,Calm,Calm,-,N/A,,Clear,0,2013-07-18 02:15:00
9:35 PM,73.4,69.8,88,30.18,10.0,WNW,3.5,-,N/A,,Clear,300,2013-07-18 02:35:00
9:55 PM,73.4,69.8,88,30.19,10.0,Calm,Calm,-,N/A,,Clear,0,2013-07-18 02:55:00
10:15 PM,73.4,69.8,88,30.19,10.0,Calm,Calm,-,N/A,,Clear,0,2013-07-18 03:15:00
10:35 PM,71.6,69.8,94,30.18,10.0,Calm,Calm,-,N/A,,Clear,0,2013-07-18 03:35:00
10:55 PM,73.4,69.8,88,30.18,10.0,Calm,Calm,-,N/A,,Clear,0,2013-07-18 03:55:00
11:15 PM,71.6,69.8,94,30.18,9.0,Calm,Calm,-,N/A,,Clear,0,2013-07-18 04:15:00
11:35 PM,73.4,69.8,88,30.19,10.0,Calm,Calm,-,N/A,,Partly Cloudy,0,2013-07-18 04:35:00
11:55 PM,73.4,69.8,88,30.21,10.0,Calm,Calm,-,N/A,,Mostly Cloudy,0,2013-07-18 04:55:00